カタリナ彗星

257P/Catalina (2020)

English version
Home page
Updated on May 19, 2019

---------------------------------------------------------------------

・ プロフィール

・ 軌道要素

Epoch 2020 Sept. 28.0 TT = JDT 2459120.5
T 2020 Sept. 10.74117 TT                                MPCW
q   2.1424405            (2000.0)            P               Q
n   0.13500350     Peri.  117.64898     +0.79759426     +0.58134488
a   3.7633334      Node   207.73791     -0.59861438     +0.79567058
e   0.4307067      Incl.   20.22177     +0.07419041     +0.17013659
P   7.30
From 1151 observations 2005 Apr. 17-2019 May 11, mean residual 0".6.
     Nongravitational parameters A1 = -0.05, A2 = -0.0285.

・ 星図

・ 光度変化

        m1 = 11.8 + 5 logΔ + 10.0 log r(t + 70)

---------------------------------------------------------------------

軌道要素はM.P.E.C. 2019-J142に掲載されたものです。
星図はステラナビゲータ Ver.10 (アストロアーツ) で作成したものです。
光度グラフはComet for Windowsで作成したものです。

---------------------------------------------------------------------

Copyright(C) Seiichi Yoshida (comet@aerith.net). All rights reserved.